,,,PA_Meas_PMT16A,,PR_Meas_QMR101_102,,RH_Meas_QMH101,,SR_Meas_QMS101,,TA_Meas_QMH101,,GenWind,,GenWind,
date,time,status,PA,status,PR,status,RH,status,SR,status,TA,status,DirAvg,status,SpdAvg,
2014-06-11, 00:00:04,VALID,1008.22,VALID,0,VALID,104,VALID,0,VALID,24.7269,VALID,120,VALID,0.365234,
2014-06-11, 00:01:04,VALID,1008.19,VALID,0,VALID,104,VALID,0,VALID,24.7464,VALID,120,VALID,0.383203,
2014-06-11, 00:02:04,VALID,1008.18,VALID,0,VALID,104,VALID,0,VALID,24.7464,VALID,120,VALID,0.507031,
2014-06-11, 00:03:04,VALID,1008.18,VALID,0,VALID,104,VALID,0,VALID,24.7269,VALID,120,VALID,0.219922,
2014-06-11, 00:04:04,VALID,1008.18,VALID,0,VALID,104,VALID,0,VALID,24.7269,VALID,120,VALID,0.391406,
2014-06-11, 00:05:04,VALID,1008.19,VALID,0,VALID,104,VALID,0,VALID,24.7464,VALID,120,VALID,0.798047,
2014-06-11, 00:06:04,VALID,1008.21,VALID,0,VALID,104,VALID,0,VALID,24.7269,VALID,120,VALID,0.693359,
2014-06-11, 00:07:04,VALID,1008.19,VALID,0,VALID,104,VALID,0,VALID,24.7074,VALID,120,VALID,0.955469,
2014-06-11, 00:08:04,VALID,1008.18,VALID,0,VALID,104,VALID,0,VALID,24.7269,VALID,120,VALID,0.910937,
2014-06-11, 00:09:04,VALID,1008.19,VALID,0,VALID,104,VALID,0,VALID,24.7269,VALID,120,VALID,0.655859,
2014-06-11, 00:10:04,VALID,1008.17,VALID,0,VALID,104,VALID,0,VALID,24.7269,VALID,120,VALID,1.13125,
2014-06-11, 00:11:04,VALID,1008.16,VALID,0,VALID,104,VALID,0,VALID,24.7269,VALID,120,VALID,0.683984,
2014-06-11, 00:12:04,VALID,1008.15,VALID,0,VALID,104,VALID,0,VALID,24.7269,VALID,120,VALID,0.769531,
2014-06-11, 00:13:04,VALID,1008.15,VALID,0,VALID,104,VALID,0,VALID,24.7464,VALID,120,VALID,0,
2014-06-11, 00:14:04,VALID,1008.12,VALID,0,VALID,104,VALID,0,VALID,24.7483,VALID,120,VALID,0.185937,
2014-06-11, 00:15:04,VALID,1008.06,VALID,0,VALID,104,VALID,0,VALID,24.7074,VALID,120,VALID,1.18516,
2014-06-11, 00:16:04,VALID,1008.08,VALID,0,VALID,104,VALID,0,VALID,24.7074,VALID,120,VALID,0.634375,
2014-06-11, 00:17:04,VALID,1008.07,VALID,0,VALID,104,VALID,0,VALID,24.7288,VALID,120,VALID,0.221094,
2014-06-11, 00:18:04,VALID,1008.04,VALID,0,VALID,104,VALID,0,VALID,24.7074,VALID,120,VALID,0.366797,
2014-06-11, 00:19:04,VALID,1008.07,VALID,0,VALID,104,VALID,0,VALID,24.7074,VALID,120,VALID,0.000390625,
2014-06-11, 00:20:04,VALID,1008.06,VALID,0,VALID,104,VALID,0,VALID,24.7288,VALID,120,VALID,0.124219,
2014-06-11, 00:21:04,VALID,1008.03,VALID,0,VALID,104,VALID,0,VALID,24.7288,VALID,120,VALID,0.0285156,
2014-06-11, 00:22:04,VALID,1008.03,VALID,0,VALID,104,VALID,0,VALID,24.7288,VALID,120,VALID,0.4625,
2014-06-11, 00:23:04,VALID,1008.04,VALID,0,VALID,104,VALID,0,VALID,24.7074,VALID,120,VALID,0.418359,
2014-06-11, 00:24:04,VALID,1008,VALID,0,VALID,104,VALID,0,VALID,24.6879,VALID,120,VALID,0.460547,
2014-06-11, 00:25:04,VALID,1008,VALID,0,VALID,104,VALID,0,VALID,24.6879,VALID,120,VALID,0.214062,
2014-06-11, 00:26:04,VALID,1008,VALID,0,VALID,104,VALID,0,VALID,24.6879,VALID,120,VALID,0.551172,
2014-06-11, 00:27:04,VALID,1008,VALID,0,VALID,104,VALID,0,VALID,24.7093,VALID,120,VALID,0.338281,
2014-06-11, 00:28:04,VALID,1008.03,VALID,0,VALID,104,VALID,0,VALID,24.6898,VALID,120,VALID,0.857813,
2014-06-11, 00:29:04,VALID,1008.03,VALID,0,VALID,104,VALID,0,VALID,24.6898,VALID,120,VALID,0.715625,
2014-06-11, 00:30:04,VALID,1008.03,VALID,0,VALID,104,VALID,0,VALID,24.6879,VALID,120,VALID,0.504687,
2014-06-11, 00:31:04,VALID,1008.04,VALID,0,VALID,104,VALID,0,VALID,24.7093,VALID,120,VALID,0.506641,
2014-06-11, 00:32:04,VALID,1008.06,VALID,0,VALID,103.962,VALID,0,VALID,24.6879,VALID,120,VALID,0.515625,
2014-06-11, 00:33:04,VALID,1008.07,VALID,0,VALID,103.512,VALID,0,VALID,24.6879,VALID,120,VALID,0.853516,
2014-06-11, 00:34:04,VALID,1008.06,VALID,0,VALID,103.245,VALID,0,VALID,24.7093,VALID,80,VALID,0.983984,
2014-06-11, 00:35:04,VALID,1008.01,VALID,0,VALID,103.382,VALID,0,VALID,24.6898,VALID,78,VALID,0.317969,
2014-06-11, 00:36:04,VALID,1008.03,VALID,0,VALID,102.627,VALID,0,VALID,24.6684,VALID,78,VALID,0.947266,
2014-06-11, 00:37:04,VALID,1008,VALID,0,VALID,102.322,VALID,0,VALID,24.6684,VALID,78,VALID,1.09063,
2014-06-11, 00:38:04,VALID,1007.97,VALID,0,VALID,102.147,VALID,0,VALID,24.6703,VALID,78,VALID,0.83125,
2014-06-11, 00:39:04,VALID,1008,VALID,0,VALID,102.01,VALID,0,VALID,24.6703,VALID,78,VALID,0.848047,
2014-06-11, 00:40:04,VALID,1007.98,VALID,0,VALID,102.094,VALID,0,VALID,24.6898,VALID,78,VALID,0.504297,
2014-06-11, 00:41:04,VALID,1007.99,VALID,0,VALID,102.566,VALID,0,VALID,24.6879,VALID,78,VALID,0.362891,
2014-06-11, 00:42:04,VALID,1008,VALID,0,VALID,103.39,VALID,0,VALID,24.6879,VALID,78,VALID,0.360938,
2014-06-11, 00:43:04,VALID,1007.98,VALID,0,VALID,103.054,VALID,0,VALID,24.6684,VALID,120,VALID,0.741406,
2014-06-11, 00:44:04,VALID,1007.97,VALID,0,VALID,102.978,VALID,0,VALID,24.6684,VALID,120,VALID,0.951172,
2014-06-11, 00:45:04,VALID,1007.95,VALID,0,VALID,103.535,VALID,0,VALID,24.6489,VALID,120,VALID,0.625,
2014-06-11, 00:46:04,VALID,1007.96,VALID,0,VALID,104,VALID,0,VALID,24.6294,VALID,120,VALID,0.594141,
2014-06-11, 00:47:04,VALID,1007.95,VALID,0,VALID,104,VALID,0,VALID,24.6489,VALID,120,VALID,0.607422,
2014-06-11, 00:48:04,VALID,1007.94,VALID,0,VALID,104,VALID,0,VALID,24.6703,VALID,120,VALID,0.613672,
2014-06-11, 00:49:04,VALID,1007.95,VALID,0,VALID,104,VALID,0,VALID,24.6508,VALID,101,VALID,0.642187,
2014-06-11, 00:50:04,VALID,1007.92,VALID,0,VALID,104,VALID,0,VALID,24.6508,VALID,103,VALID,0.553906,
2014-06-11, 00:51:04,VALID,1007.91,VALID,0,VALID,104,VALID,0,VALID,24.6508,VALID,103,VALID,0.442187,
2014-06-11, 00:52:04,VALID,1007.87,VALID,0,VALID,104,VALID,0,VALID,24.6294,VALID,103,VALID,0.541016,
2014-06-11, 00:53:04,VALID,1007.84,VALID,0,VALID,104,VALID,0,VALID,24.6313,VALID,103,VALID,0.658203,
2014-06-11, 00:54:04,VALID,1007.83,VALID,0,VALID,104,VALID,0,VALID,24.6118,VALID,103,VALID,0.710938,
2014-06-11, 00:55:04,VALID,1007.81,VALID,0,VALID,104,VALID,0,VALID,24.571,VALID,103,VALID,0.649609,
2014-06-11, 00:56:04,VALID,1007.83,VALID,0,VALID,104,VALID,0,VALID,24.5905,VALID,103,VALID,0.407031,
2014-06-11, 00:57:04,VALID,1007.79,VALID,0,VALID,104,VALID,0,VALID,24.5923,VALID,103,VALID,0.742578,
2014-06-11, 00:58:04,VALID,1007.76,VALID,0,VALID,104,VALID,0,VALID,24.5515,VALID,103,VALID,0.697656,
2014-06-11, 00:59:04,VALID,1007.78,VALID,0,VALID,104,VALID,0,VALID,24.5515,VALID,103,VALID,0.428516,
2014-06-11, 01:00:04,VALID,1007.76,VALID,0,VALID,104,VALID,0,VALID,24.5515,VALID,103,VALID,0.665234,
2014-06-11, 01:01:04,VALID,1007.74,VALID,0,VALID,104,VALID,0,VALID,24.5515,VALID,103,VALID,0.491797,
2014-06-11, 01:02:04,VALID,1007.75,VALID,0,VALID,104,VALID,0,VALID,24.5728,VALID,103,VALID,0.528906,
2014-06-11, 01:03:04,VALID,1007.73,VALID,0,VALID,104,VALID,0,VALID,24.532,VALID,103,VALID,0.590625,
2014-06-11, 01:04:04,VALID,1007.7,VALID,0,VALID,104,VALID,0,VALID,24.5106,VALID,103,VALID,0.771484,
2014-06-11, 01:05:04,VALID,1007.71,VALID,0,VALID,104,VALID,0,VALID,24.5515,VALID,103,VALID,0.796875,
2014-06-11, 01:06:04,VALID,1007.73,VALID,0,VALID,104,VALID,0,VALID,24.5515,VALID,103,VALID,0.491016,
2014-06-11, 01:07:04,VALID,1007.72,VALID,0,VALID,104,VALID,0,VALID,24.5515,VALID,103,VALID,0.607422,
2014-06-11, 01:08:04,VALID,1007.74,VALID,0,VALID,104,VALID,0,VALID,24.5515,VALID,103,VALID,0.357812,
2014-06-11, 01:09:04,VALID,1007.72,VALID,0,VALID,104,VALID,0,VALID,24.5728,VALID,103,VALID,1.01094,
2014-06-11, 01:10:04,VALID,1007.73,VALID,0,VALID,104,VALID,0,VALID,24.532,VALID,103,VALID,0.645703,
2014-06-11, 01:11:04,VALID,1007.73,VALID,0,VALID,104,VALID,0,VALID,24.532,VALID,103,VALID,0.339844,
2014-06-11, 01:12:04,VALID,1007.75,VALID,0,VALID,104,VALID,0,VALID,24.5515,VALID,103,VALID,0.511328,
2014-06-11, 01:13:04,VALID,1007.74,VALID,0,VALID,104,VALID,0,VALID,24.5515,VALID,103,VALID,0.475,
2014-06-11, 01:14:04,VALID,1007.75,VALID,0,VALID,104,VALID,0,VALID,24.5515,VALID,103,VALID,0.344922,
2014-06-11, 01:15:04,VALID,1007.69,VALID,0,VALID,104,VALID,0,VALID,24.5515,VALID,99,VALID,0.912891,
2014-06-11, 01:16:04,VALID,1007.71,VALID,0,VALID,104,VALID,0,VALID,24.5515,VALID,93,VALID,0.483203,
2014-06-11, 01:17:04,VALID,1007.68,VALID,0,VALID,104,VALID,0,VALID,24.532,VALID,93,VALID,0.671875,
2014-06-11, 01:18:04,VALID,1007.64,VALID,0,VALID,104,VALID,0,VALID,24.532,VALID,93,VALID,0.982422,
2014-06-11, 01:19:04,VALID,1007.62,VALID,0,VALID,104,VALID,0,VALID,24.5533,VALID,93,VALID,0.957812,
2014-06-11, 01:20:04,VALID,1007.6,VALID,0,VALID,104,VALID,0,VALID,24.5533,VALID,93,VALID,0.968359,
2014-06-11, 01:21:04,VALID,1007.58,VALID,0,VALID,104,VALID,0,VALID,24.532,VALID,90,VALID,1.51211,
2014-06-11, 01:22:04,VALID,1007.54,VALID,0,VALID,104,VALID,0,VALID,24.5515,VALID,90,VALID,1.29297,
2014-06-11, 01:23:04,VALID,1007.56,VALID,0,VALID,104,VALID,0,VALID,24.5533,VALID,90,VALID,0.531641,
2014-06-11, 01:24:04,VALID,1007.58,VALID,0,VALID,104,VALID,0,VALID,24.532,VALID,129,VALID,0.994531,
2014-06-11, 01:25:04,VALID,1007.57,VALID,0,VALID,104,VALID,0,VALID,24.5125,VALID,129,VALID,1.18672,
2014-06-11, 01:26:04,VALID,1007.59,VALID,0,VALID,104,VALID,0,VALID,24.5125,VALID,129,VALID,1.17148,
2014-06-11, 01:27:04,VALID,1007.57,VALID,0,VALID,104,VALID,0,VALID,24.5125,VALID,129,VALID,0.886719,
2014-06-11, 01:28:04,VALID,1007.57,VALID,0,VALID,104,VALID,0,VALID,24.5338,VALID,129,VALID,1.10117,
2014-06-11, 01:29:04,VALID,1007.59,VALID,0,VALID,104,VALID,0,VALID,24.493,VALID,129,VALID,1.32734,
2014-06-11, 01:30:04,VALID,1007.58,VALID,0,VALID,104,VALID,0,VALID,24.5144,VALID,129,VALID,0.867969,
2014-06-11, 01:31:04,VALID,1007.58,VALID,0,VALID,104,VALID,0,VALID,24.4735,VALID,129,VALID,1.51953,
2014-06-11, 01:32:04,VALID,1007.58,VALID,0,VALID,104,VALID,0,VALID,24.4754,VALID,129,VALID,0.608203,
2014-06-11, 01:33:04,VALID,1007.55,VALID,0,VALID,104,VALID,0,VALID,24.4559,VALID,129,VALID,0.692969,
2014-06-11, 01:34:04,VALID,1007.55,VALID,0,VALID,104,VALID,0,VALID,24.4345,VALID,129,VALID,0.917578,
2014-06-11, 01:35:04,VALID,1007.51,VALID,0,VALID,104,VALID,0,VALID,24.415,VALID,111,VALID,1.19258,
2014-06-11, 01:36:04,VALID,1007.53,VALID,0,VALID,104,VALID,0,VALID,24.4345,VALID,106,VALID,0.503125,
2014-06-11, 01:37:04,VALID,1007.48,VALID,0,VALID,104,VALID,0,VALID,24.4345,VALID,106,VALID,0.693359,
2014-06-11, 01:38:04,VALID,1007.47,VALID,0,VALID,104,VALID,0,VALID,24.415,VALID,106,VALID,1.07969,
2014-06-11, 01:39:04,VALID,1007.47,VALID,0,VALID,104,VALID,0,VALID,24.415,VALID,109,VALID,1.24375,
2014-06-11, 01:40:04,VALID,1007.46,VALID,0,VALID,104,VALID,0,VALID,24.3937,VALID,120,VALID,0.740625,
2014-06-11, 01:41:04,VALID,1007.43,VALID,0,VALID,104,VALID,0.224224,VALID,24.3937,VALID,113,VALID,1.17031,
2014-06-11, 01:42:04,VALID,1007.43,VALID,0,VALID,104,VALID,0.112112,VALID,24.3937,VALID,93,VALID,0.802344,
2014-06-11, 01:43:04,VALID,1007.4,VALID,0,VALID,104,VALID,0.112112,VALID,24.3937,VALID,108,VALID,0.901953,
2014-06-11, 01:44:04,VALID,1007.37,VALID,0,VALID,104,VALID,0.112112,VALID,24.3956,VALID,124,VALID,0.930078,
2014-06-11, 01:45:04,VALID,1007.34,VALID,0,VALID,104,VALID,0.112112,VALID,24.3937,VALID,124,VALID,0.8875,
2014-06-11, 01:46:04,VALID,1007.35,VALID,0,VALID,104,VALID,0.224224,VALID,24.3937,VALID,124,VALID,0.666016,
2014-06-11, 01:47:04,VALID,1007.37,VALID,0,VALID,104,VALID,0.112112,VALID,24.4132,VALID,114,VALID,0.971875,
2014-06-11, 01:48:04,VALID,1007.36,VALID,0,VALID,104,VALID,0.112112,VALID,24.3937,VALID,102,VALID,1.07578,
2014-06-11, 01:49:04,VALID,1007.42,VALID,0,VALID,104,VALID,0.112112,VALID,24.4132,VALID,95,VALID,0.828516,
2014-06-11, 01:50:04,VALID,1007.39,VALID,0,VALID,104,VALID,0.112112,VALID,24.4132,VALID,89,VALID,1.10117,
2014-06-11, 01:51:04,VALID,1007.39,VALID,0,VALID,104,VALID,0.112112,VALID,24.4132,VALID,104,VALID,0.774609,
2014-06-11, 01:52:04,VALID,1007.4,VALID,0,VALID,104,VALID,0.112112,VALID,24.4345,VALID,88,VALID,1.54688,
2014-06-11, 01:53:04,VALID,1007.39,VALID,0,VALID,104,VALID,0.224224,VALID,24.4132,VALID,106,VALID,1.29258,
2014-06-11, 01:54:04,VALID,1007.37,VALID,0,VALID,104,VALID,0.112112,VALID,24.4132,VALID,111,VALID,0.889453,
2014-06-11, 01:55:04,VALID,1007.36,VALID,0,VALID,104,VALID,0,VALID,24.415,VALID,84,VALID,1.47344,
2014-06-11, 01:56:04,VALID,1007.39,VALID,0,VALID,104,VALID,0,VALID,24.4169,VALID,91,VALID,1.10117,
2014-06-11, 01:57:04,VALID,1007.37,VALID,0,VALID,104,VALID,0,VALID,24.415,VALID,91,VALID,1.24258,
2014-06-11, 01:58:04,VALID,1007.39,VALID,0,VALID,104,VALID,0,VALID,24.415,VALID,94,VALID,0.819922,
2014-06-11, 01:59:04,VALID,1007.36,VALID,0,VALID,104,VALID,0,VALID,24.3956,VALID,97,VALID,1.55156,
2014-06-11, 02:00:04,VALID,1007.36,VALID,0,VALID,104,VALID,0,VALID,24.3956,VALID,78,VALID,1.09766,
2014-06-11, 02:01:04,VALID,1007.33,VALID,0,VALID,104,VALID,0,VALID,24.4169,VALID,99,VALID,1.1668,
2014-06-11, 02:02:04,VALID,1007.33,VALID,0,VALID,104,VALID,0,VALID,24.3956,VALID,77,VALID,0.696484,
2014-06-11, 02:03:04,VALID,1007.32,VALID,0,VALID,104,VALID,0,VALID,24.3956,VALID,78,VALID,0.725391,
2014-06-11, 02:04:04,VALID,1007.31,VALID,0,VALID,104,VALID,0,VALID,24.3956,VALID,80,VALID,0.956641,
2014-06-11, 02:05:04,VALID,1007.29,VALID,0,VALID,104,VALID,0,VALID,24.3956,VALID,90,VALID,0.549609,
2014-06-11, 02:06:04,VALID,1007.28,VALID,0,VALID,104,VALID,0,VALID,24.3956,VALID,90,VALID,0.694922,
2014-06-11, 02:07:04,VALID,1007.25,VALID,0,VALID,104,VALID,0,VALID,24.3761,VALID,74,VALID,0.855078,
2014-06-11, 02:08:04,VALID,1007.25,VALID,0,VALID,104,VALID,0,VALID,24.3761,VALID,74,VALID,0.635156,
2014-06-11, 02:09:04,VALID,1007.27,VALID,0,VALID,104,VALID,0,VALID,24.3761,VALID,74,VALID,1.32187,
2014-06-11, 02:10:04,VALID,1007.26,VALID,0,VALID,104,VALID,0,VALID,24.3761,VALID,76,VALID,1.36914,
2014-06-11, 02:11:04,VALID,1007.27,VALID,0,VALID,104,VALID,0,VALID,24.3779,VALID,74,VALID,1.45156,
2014-06-11, 02:12:04,VALID,1007.27,VALID,0,VALID,104,VALID,0,VALID,24.3566,VALID,71,VALID,0.964844,
2014-06-11, 02:13:04,VALID,1007.26,VALID,0,VALID,104,VALID,0,VALID,24.3566,VALID,71,VALID,0.469141,
2014-06-11, 02:14:04,VALID,1007.27,VALID,0,VALID,104,VALID,0,VALID,24.3974,VALID,71,VALID,0.692969,
2014-06-11, 02:15:04,VALID,1007.22,VALID,0,VALID,104,VALID,0,VALID,24.3761,VALID,71,VALID,1.16094,
2014-06-11, 02:16:04,VALID,1007.22,VALID,0,VALID,104,VALID,0,VALID,24.3779,VALID,88,VALID,1.26367,
2014-06-11, 02:17:04,VALID,1007.21,VALID,0,VALID,104,VALID,0,VALID,24.3566,VALID,56,VALID,1.2668,
2014-06-11, 02:18:04,VALID,1007.19,VALID,0,VALID,104,VALID,0,VALID,24.3779,VALID,67,VALID,0.749609,
2014-06-11, 02:19:04,VALID,1007.2,VALID,0,VALID,104,VALID,0,VALID,24.3566,VALID,67,VALID,0.416016,
2014-06-11, 02:20:04,VALID,1007.2,VALID,0,VALID,104,VALID,0,VALID,24.3584,VALID,66,VALID,1.24492,
2014-06-11, 02:21:04,VALID,1007.22,VALID,0,VALID,104,VALID,0,VALID,24.3371,VALID,64,VALID,1.29141,
2014-06-11, 02:22:04,VALID,1007.25,VALID,0,VALID,104,VALID,0,VALID,24.3371,VALID,64,VALID,0.850781,
2014-06-11, 02:23:04,VALID,1007.27,VALID,0,VALID,104,VALID,0,VALID,24.3371,VALID,64,VALID,1.06289,
2014-06-11, 02:24:04,VALID,1007.24,VALID,0,VALID,104,VALID,0,VALID,24.3371,VALID,64,VALID,0.905078,
2014-06-11, 02:25:04,VALID,1007.24,VALID,0,VALID,104,VALID,0,VALID,24.3371,VALID,64,VALID,0.653906,
2014-06-11, 02:26:04,VALID,1007.29,VALID,0,VALID,104,VALID,0,VALID,24.3584,VALID,64,VALID,0.739844,
2014-06-11, 02:27:04,VALID,1007.27,VALID,0,VALID,104,VALID,0,VALID,24.3584,VALID,64,VALID,0.648828,
2014-06-11, 02:28:04,VALID,1007.29,VALID,0,VALID,104,VALID,0,VALID,24.3566,VALID,74,VALID,0.847656,
2014-06-11, 02:29:04,VALID,1007.29,VALID,0,VALID,104,VALID,0,VALID,24.3761,VALID,74,VALID,0.562891,
2014-06-11, 02:30:04,VALID,1007.28,VALID,0,VALID,104,VALID,0,VALID,24.3956,VALID,74,VALID,0.208984,
2014-06-11, 02:31:04,VALID,1007.3,VALID,0,VALID,104,VALID,0,VALID,24.3956,VALID,74,VALID,0,
2014-06-11, 02:32:04,VALID,1007.32,VALID,0,VALID,104,VALID,0,VALID,24.3956,VALID,82,VALID,0,
2014-06-11, 02:33:04,VALID,1007.34,VALID,0,VALID,104,VALID,0,VALID,24.3956,VALID,75,VALID,0,
2014-06-11, 02:34:04,VALID,1007.36,VALID,0,VALID,104,VALID,0,VALID,24.415,VALID,75,VALID,0,
2014-06-11, 02:35:04,VALID,1007.38,VALID,0,VALID,104,VALID,0,VALID,24.4364,VALID,75,VALID,0,
2014-06-11, 02:36:04,VALID,1007.41,VALID,0,VALID,104,VALID,0,VALID,24.3956,VALID,75,VALID,0,
2014-06-11, 02:37:04,VALID,1007.43,VALID,0,VALID,104,VALID,0,VALID,24.3956,VALID,74,VALID,0,
2014-06-11, 02:38:04,VALID,1007.42,VALID,0,VALID,104,VALID,0,VALID,24.415,VALID,74,VALID,0,
2014-06-11, 02:39:04,VALID,1007.43,VALID,0,VALID,104,VALID,0,VALID,24.3956,VALID,75,VALID,0,
2014-06-11, 02:40:04,VALID,1007.43,VALID,0,VALID,104,VALID,0.112112,VALID,24.415,VALID,75,VALID,0,
2014-06-11, 02:41:04,VALID,1007.43,VALID,0,VALID,104,VALID,0.112112,VALID,24.3937,VALID,56,VALID,0,
2014-06-11, 02:42:04,VALID,1007.39,VALID,0,VALID,104,VALID,0.112112,VALID,24.3742,VALID,56,VALID,0,
2014-06-11, 02:43:04,VALID,1007.37,VALID,0,VALID,104,VALID,0.112112,VALID,24.3547,VALID,56,VALID,0,
2014-06-11, 02:44:04,VALID,1007.39,VALID,0,VALID,104,VALID,0.112112,VALID,24.3352,VALID,56,VALID,0,
2014-06-11, 02:45:04,VALID,1007.41,VALID,0,VALID,104,VALID,0.112112,VALID,24.3352,VALID,56,VALID,0,
2014-06-11, 02:46:04,VALID,1007.38,VALID,0,VALID,104,VALID,0.112112,VALID,24.2963,VALID,56,VALID,0,
2014-06-11, 02:47:04,VALID,1007.4,VALID,0,VALID,104,VALID,0.112112,VALID,24.2768,VALID,56,VALID,0,
2014-06-11, 02:48:04,VALID,1007.36,VALID,0,VALID,104,VALID,0.112112,VALID,24.2963,VALID,56,VALID,0,
2014-06-11, 02:49:04,VALID,1007.31,VALID,0,VALID,104,VALID,0.112112,VALID,24.2963,VALID,75,VALID,0,
2014-06-11, 02:50:04,VALID,1007.31,VALID,0,VALID,104,VALID,0.112112,VALID,24.2963,VALID,75,VALID,0,
2014-06-11, 02:51:04,VALID,1007.31,VALID,0,VALID,104,VALID,0.112112,VALID,24.2963,VALID,75,VALID,0,
2014-06-11, 02:52:04,VALID,1007.29,VALID,0,VALID,104,VALID,0.112112,VALID,24.3176,VALID,75,VALID,0,
2014-06-11, 02:53:04,VALID,1007.32,VALID,0,VALID,104,VALID,0.112112,VALID,24.2963,VALID,75,VALID,0,
2014-06-11, 02:54:04,VALID,1007.33,VALID,0,VALID,104,VALID,0.112112,VALID,24.2963,VALID,75,VALID,0,
2014-06-11, 02:55:04,VALID,1007.33,VALID,0,VALID,104,VALID,0,VALID,24.2981,VALID,75,VALID,0,
2014-06-11, 02:56:04,VALID,1007.34,VALID,0,VALID,104,VALID,0,VALID,24.3389,VALID,75,VALID,0,
2014-06-11, 02:57:04,VALID,1007.36,VALID,0,VALID,104,VALID,0,VALID,24.3176,VALID,75,VALID,0,
2014-06-11, 02:58:04,VALID,1007.37,VALID,0,VALID,104,VALID,0,VALID,24.3176,VALID,75,VALID,0,
2014-06-11, 02:59:04,VALID,1007.42,VALID,0,VALID,104,VALID,0,VALID,24.3371,VALID,75,VALID,0,
2014-06-11, 03:00:04,VALID,1007.38,VALID,0,VALID,104,VALID,0,VALID,24.3566,VALID,75,VALID,0,
2014-06-11, 03:01:04,VALID,1007.39,VALID,0,VALID,104,VALID,0,VALID,24.3566,VALID,117,VALID,0,
2014-06-11, 03:02:04,VALID,1007.39,VALID,0,VALID,104,VALID,0,VALID,24.3566,VALID,117,VALID,0,
2014-06-11, 03:03:04,VALID,1007.34,VALID,0,VALID,104,VALID,0,VALID,24.3566,VALID,111,VALID,0,
2014-06-11, 03:04:04,VALID,1007.32,VALID,0,VALID,104,VALID,0,VALID,24.3389,VALID,88,VALID,0,
2014-06-11, 03:05:04,VALID,1007.31,VALID,0,VALID,104,VALID,0,VALID,24.3176,VALID,79,VALID,0,
2014-06-11, 03:06:04,VALID,1007.27,VALID,0,VALID,104,VALID,0,VALID,24.3176,VALID,79,VALID,0,
2014-06-11, 03:07:04,VALID,1007.27,VALID,0,VALID,104,VALID,0,VALID,24.3176,VALID,79,VALID,0,
2014-06-11, 03:08:04,VALID,1007.24,VALID,0,VALID,104,VALID,0,VALID,24.3389,VALID,79,VALID,0,
2014-06-11, 03:09:04,VALID,1007.23,VALID,0,VALID,104,VALID,0,VALID,24.3389,VALID,85,VALID,0,
2014-06-11, 03:10:04,VALID,1007.23,VALID,0,VALID,104,VALID,0,VALID,24.3371,VALID,71,VALID,0,
2014-06-11, 03:11:04,VALID,1007.24,VALID,0,VALID,104,VALID,0,VALID,24.2981,VALID,62,VALID,0,
2014-06-11, 03:12:04,VALID,1007.24,VALID,0,VALID,104,VALID,0,VALID,24.3194,VALID,62,VALID,0,
2014-06-11, 03:13:04,VALID,1007.22,VALID,0,VALID,104,VALID,0,VALID,24.2786,VALID,62,VALID,0,
2014-06-11, 03:14:04,VALID,1007.21,VALID,0,VALID,104,VALID,0,VALID,24.2786,VALID,62,VALID,0,
2014-06-11, 03:15:04,VALID,1007.2,VALID,0,VALID,104,VALID,0,VALID,24.2786,VALID,62,VALID,0,
2014-06-11, 03:16:04,VALID,1007.17,VALID,0,VALID,104,VALID,0,VALID,24.2786,VALID,62,VALID,0,
2014-06-11, 03:17:04,VALID,1007.16,VALID,0,VALID,104,VALID,0,VALID,24.2786,VALID,62,VALID,0,
2014-06-11, 03:18:04,VALID,1007.16,VALID,0,VALID,104,VALID,0,VALID,24.2591,VALID,62,VALID,0,
2014-06-11, 03:19:04,VALID,1007.17,VALID,0,VALID,104,VALID,0,VALID,24.2591,VALID,62,VALID,0,
2014-06-11, 03:20:04,VALID,1007.18,VALID,0,VALID,104,VALID,0,VALID,24.2591,VALID,62,VALID,0,
2014-06-11, 03:21:04,VALID,1007.17,VALID,0,VALID,104,VALID,0,VALID,24.2591,VALID,62,VALID,0,
2014-06-11, 03:22:04,VALID,1007.16,VALID,0,VALID,104,VALID,0,VALID,24.2591,VALID,62,VALID,0,
2014-06-11, 03:23:04,VALID,1007.19,VALID,0,VALID,104,VALID,0,VALID,24.2396,VALID,62,VALID,0,
2014-06-11, 03:24:04,VALID,1007.17,VALID,0,VALID,104,VALID,0,VALID,24.2396,VALID,62,VALID,0,
2014-06-11, 03:25:04,VALID,1007.16,VALID,0,VALID,104,VALID,0,VALID,24.2415,VALID,62,VALID,0,
2014-06-11, 03:26:04,VALID,1007.18,VALID,0,VALID,104,VALID,0,VALID,24.2396,VALID,62,VALID,0,
2014-06-11, 03:27:04,VALID,1007.19,VALID,0,VALID,104,VALID,0,VALID,24.2202,VALID,62,VALID,0,
2014-06-11, 03:28:04,VALID,1007.17,VALID,0,VALID,104,VALID,0,VALID,24.2202,VALID,71,VALID,0,
2014-06-11, 03:29:04,VALID,1007.17,VALID,0,VALID,104,VALID,0,VALID,24.2007,VALID,71,VALID,0,
2014-06-11, 03:30:04,VALID,1007.15,VALID,0,VALID,104,VALID,0,VALID,24.2007,VALID,71,VALID,0,
2014-06-11, 03:31:04,VALID,1007.16,VALID,0,VALID,104,VALID,0,VALID,24.2007,VALID,71,VALID,0,
2014-06-11, 03:32:04,VALID,1007.15,VALID,0,INVALID,109.033,VALID,0,VALID,24.2202,VALID,71,VALID,0,
2014-06-11, 03:33:04,VALID,1007.14,VALID,0,INVALID,109.041,VALID,0,VALID,24.1988,VALID,71,VALID,0,
2014-06-11, 03:34:04,VALID,1007.13,VALID,0,INVALID,109.064,VALID,0.112112,VALID,24.2202,VALID,71,VALID,0,
2014-06-11, 03:35:04,VALID,1007.08,VALID,0,INVALID,109.125,VALID,0,VALID,24.2202,VALID,71,VALID,0,
2014-06-11, 03:36:04,VALID,1007.1,VALID,0,INVALID,109.178,VALID,0.112112,VALID,24.2396,VALID,71,VALID,0,
2014-06-11, 03:37:04,VALID,1007.1,VALID,0,INVALID,109.3,VALID,0,VALID,24.2591,VALID,71,VALID,0,
2014-06-11, 03:38:04,VALID,1007.12,VALID,0,INVALID,109.33,VALID,0,VALID,24.2591,VALID,102,VALID,0,
2014-06-11, 03:39:04,VALID,1007.08,VALID,0,INVALID,109.361,VALID,0.112112,VALID,24.2591,VALID,90,VALID,0,
2014-06-11, 03:40:04,VALID,1007.09,VALID,0,INVALID,109.353,VALID,0,VALID,24.3,VALID,90,VALID,0,
2014-06-11, 03:41:04,VALID,1007.09,VALID,0,INVALID,109.239,VALID,0,VALID,24.2786,VALID,90,VALID,0,
2014-06-11, 03:42:04,VALID,1007.09,VALID,0,INVALID,109.216,VALID,0,VALID,24.3,VALID,90,VALID,0,
2014-06-11, 03:43:04,VALID,1007.13,VALID,0,INVALID,109.216,VALID,0,VALID,24.3,VALID,90,VALID,0,
2014-06-11, 03:44:04,VALID,1007.15,VALID,0,INVALID,109.201,VALID,0,VALID,24.3,VALID,90,VALID,0,
2014-06-11, 03:45:04,VALID,1007.14,VALID,0,INVALID,109.178,VALID,0,VALID,24.2805,VALID,90,VALID,0,
2014-06-11, 03:46:04,VALID,1007.17,VALID,0,INVALID,109.163,VALID,0,VALID,24.2591,VALID,90,VALID,0,
2014-06-11, 03:47:04,VALID,1007.16,VALID,0,INVALID,109.201,VALID,0,VALID,24.2591,VALID,90,VALID,0,
2014-06-11, 03:48:04,VALID,1007.16,VALID,0,INVALID,109.231,VALID,0,VALID,24.2591,VALID,90,VALID,0,
2014-06-11, 03:49:04,VALID,1007.12,VALID,0,INVALID,109.216,VALID,0,VALID,24.261,VALID,90,VALID,0,
2014-06-11, 03:50:04,VALID,1007.17,VALID,0,INVALID,109.201,VALID,0,VALID,24.2396,VALID,71,VALID,0,
2014-06-11, 03:51:04,VALID,1007.15,VALID,0,INVALID,109.216,VALID,0,VALID,24.2591,VALID,89,VALID,0,
2014-06-11, 03:52:04,VALID,1007.16,VALID,0,INVALID,109.247,VALID,0,VALID,24.2805,VALID,73,VALID,0,
2014-06-11, 03:53:04,VALID,1007.14,VALID,0,INVALID,109.262,VALID,0,VALID,24.2591,VALID,73,VALID,0,
2014-06-11, 03:54:04,VALID,1007.18,VALID,0,INVALID,109.269,VALID,0,VALID,24.2591,VALID,74,VALID,0,
2014-06-11, 03:55:04,VALID,1007.17,VALID,0,INVALID,109.308,VALID,0,VALID,24.2591,VALID,75,VALID,0,
2014-06-11, 03:56:04,VALID,1007.19,VALID,0,INVALID,109.262,VALID,0,VALID,24.2805,VALID,71,VALID,0,